sat.trackr.live / text

‹ back to catalog

ONEWEB-0333

NORAD 49199 · 2021-083P

PAYLOAD ACTIVE UNKNOWN

§ Identity

Operator
Country
UK
Launch date
2021-09-14
Launch site
TYMSC
Launch vehicle
Mass (kg)
RCS (m²)

Purposes: comms

External: N2YO · Heavens-Above · Gunter

§ Orbital elements

Epoch: 2026-05-25T01:24:00.402336Z

Period
109.63 min
Inclination
87.8941°
Eccentricity
0.0001828
Mean motion
13.13467876 rev/d
Perigee alt
1,208.4 km
Apogee alt
1,211.2 km
Semi-major
7,587.9 km
B*
-6.9744e-4
RAAN
324.8435°
Arg perigee
90.3725°
Mean anomaly
269.7613°
Rev number
22,787

§ Raw data

ONEWEB-03331 49199U 21083P   26145.05833799 -.00000242  00000+0 -69744-3 0  99902 49199  87.8941 324.8435 0001828  90.3725 269.7613 13.13467876227871

JSON: /api/v1/satellites/49199 · /tle

For live sub-satellite position, see the globe view (requires WebGL).

§ Visibility from observer

Set your observer location to see the next 7 days of passes ≥ 10°. The values pass through the URL so the page stays shareable.

No JS? Fill the form by hand. The geolocation button needs JavaScript.